Flag for U.S.A. Weather past 2 weeks in Charleston, West Virginia, U.S.A.

Now
89 °F

Scattered clouds.


Feels Like: 90 °F
Forecast: 67 / 91 °F
Wind: 7 mph from Northwest

Location: Yeager Airport

Current Time: Sep 2, 2015 at 6:38:46 PM

Latest Report: Sep 2, 2015 at 4:54 PM


Visibility: 10 mi

Pressure: 29.99 "Hg

Humidity: 42%

Dew point: 63 °F

Location of CharlestonLocation

Historic Weather in Charleston — Graph

°F

Charleston temperature yesterday

Maximum temperature yesterday: 90 °F (at 4:54 PM)
Minimum temperature yesterday: 64 °F (at 6:54 AM)
Average temperature yesterday: 74 °F

Past Weeks' High & Low Weather Summary

 TemperatureHumidityPressure
High90 °F (Sep 1, 4:54 PM)97% (Aug 19, 10:54 PM)30.19 "Hg (Aug 19, 10:54 PM)
Low54 °F (Aug 28, 5:54 AM)39% (Aug 31, 5:54 PM)29.82 "Hg (Aug 20, 3:54 AM)
Average71 °F76%30.05 "Hg
* Reported Aug 18 4:54 PM — Sep 2 4:54 PM, Charleston, Weather by CustomWeather, © 2015

Note: Actual official high and low records may vary slightly from our data, if they occured in-between our weather recording intervals... More about our weather records

Advertising

Charleston weather history for previous 24 hours

 ConditionsComfort  
Time TempWeatherWind HumidityBarometerVisibility
4:54 PM
Wed, Sep 2
89 °FScattered clouds.7 mph42%29.99 "Hg10 mi
3:54 PM88 °FScattered clouds.10 mph46%30.01 "Hg10 mi
2:54 PM85 °FScattered clouds.5 mph53%30.03 "Hg10 mi
1:54 PM87 °FBroken clouds.No wind48%30.05 "Hg10 mi
12:54 PM88 °FPartly sunny.6 mph48%30.07 "Hg10 mi
11:54 AM83 °FScattered clouds.No wind59%30.10 "Hg10 mi
10:54 AM80 °FPassing clouds.3 mph64%30.11 "Hg10 mi
9:54 AM76 °FSunny.No wind74%30.12 "Hg7 mi
8:54 AM68 °FFog.No wind96%30.12 "Hg6 mi
7:54 AM66 °FFog.No wind96%30.12 "Hg4 mi
6:54 AM65 °FFog.No wind97%30.10 "Hg4 mi
5:54 AM66 °FFog.No wind93%30.09 "Hg6 mi
4:54 AM67 °FFog.No wind93%30.08 "Hg6 mi
3:54 AM67 °FFog.No wind97%30.08 "Hg6 mi
2:54 AM68 °FFog.No wind93%30.09 "Hg6 mi
1:54 AM69 °FPassing clouds.No wind93%30.09 "Hg7 mi
12:54 AM70 °FClear.No wind90%30.09 "Hg7 mi
11:54 PM
Tue, Sep 1
71 °FPassing clouds.No wind87%30.09 "Hg7 mi
10:54 PM72 °FPassing clouds.No wind84%30.09 "Hg7 mi
9:54 PM74 °FClear.No wind82%30.09 "Hg10 mi
8:54 PM76 °FScattered clouds.No wind80%30.09 "Hg9 mi
7:54 PM78 °FScattered clouds.No wind71%30.07 "Hg9 mi
6:54 PM84 °FScattered clouds.No wind57%30.06 "Hg10 mi
Weather by CustomWeather, © 2015

See weather overviewHow to use our weather pages